Air Quality Table

TIMESTAMP NO2 SO2 PM10 PM2.5 CO TEMP HUM AIRPRES WS WD NO
2022-01-21 05:00 68.9 µg/m3 0.57 µg/m3 15.65 µg/m3 7.85 µg/m3 0.18 mg/m3 11.01 °C 74.87 % 1,019.36 mbar 1.89 m/s 194.2 Deg 5.37 µg/m3
2022-01-21 04:00 83.74 µg/m3 0.77 µg/m3 14.43 µg/m3 7.08 µg/m3 0.21 mg/m3 11.13 °C 73.94 % 1,019.73 mbar 1.91 m/s 197.73 Deg 29.84 µg/m3
2022-01-21 03:00 54.18 µg/m3 0.9 µg/m3 14.35 µg/m3 7.49 µg/m3 0.2 mg/m3 11.29 °C 73.97 % 1,020.24 mbar 2.05 m/s 192.19 Deg 21.85 µg/m3
2022-01-21 02:00 54.52 µg/m3 0.63 µg/m3 15 µg/m3 8.03 µg/m3 0.21 mg/m3 11.35 °C 75.45 % 1,020.42 mbar 1.97 m/s 193.95 Deg 4.61 µg/m3
2022-01-21 01:00 39.77 µg/m3 0.49 µg/m3 15.35 µg/m3 8.25 µg/m3 0.23 mg/m3 11.62 °C 76.6 % 1,020.84 mbar 2.43 m/s 196.02 Deg 0.65 µg/m3
2022-01-21 00:00 69.51 µg/m3 0.97 µg/m3 30.99 µg/m3 16.06 µg/m3 0.39 mg/m3 11 °C 80.66 % 1,021.31 mbar 1.8 m/s 195.98 Deg 34.45 µg/m3
2022-01-20 23:00 79.98 µg/m3 1.04 µg/m3 33.1 µg/m3 18.88 µg/m3 0.44 mg/m3 11.35 °C 80.43 % 1,021.60 mbar 1.25 m/s 202.52 Deg 38.33 µg/m3
2022-01-20 22:00 72.73 µg/m3 0.63 µg/m3 30.16 µg/m3 17.93 µg/m3 0.4 mg/m3 11.51 °C 75.85 % 1,021.74 mbar 1.56 m/s 199.14 Deg 10.36 µg/m3
2022-01-20 21:00 66.42 µg/m3 0.51 µg/m3 21.67 µg/m3 11.19 µg/m3 0.35 mg/m3 12.11 °C 72.87 % 1,021.68 mbar 1.8 m/s 193.59 Deg 3.99 µg/m3
2022-01-20 20:00 64.21 µg/m3 0.62 µg/m3 18.92 µg/m3 10.03 µg/m3 0.37 mg/m3 12.67 °C 71.84 % 1,021.75 mbar 2.13 m/s 201.68 Deg 10.43 µg/m3
2022-01-20 19:00 75.97 µg/m3 0.62 µg/m3 19.44 µg/m3 9.76 µg/m3 0.39 mg/m3 13.09 °C 71.05 % 1,021.68 mbar 2.28 m/s 198.72 Deg 15.99 µg/m3
2022-01-20 18:00 22.25 µg/m3 0.27 µg/m3 11.81 µg/m3 4.99 µg/m3 0.24 mg/m3 13.65 °C 66.62 % 1,021.61 mbar 3.23 m/s 213.75 Deg 2.43 µg/m3
2022-01-20 17:00 19.43 µg/m3 0.34 µg/m3 10.5 µg/m3 4.09 µg/m3 0.23 mg/m3 13.96 °C 66.02 % 1,021.62 mbar 2.32 m/s 261.88 Deg 4.45 µg/m3
2022-01-20 16:00 18.35 µg/m3 0.4 µg/m3 10.71 µg/m3 4.2 µg/m3 0.21 mg/m3 14.16 °C 63.56 % 1,021.71 mbar 2.54 m/s 259.89 Deg 5.85 µg/m3
2022-01-20 15:00 19.57 µg/m3 0.43 µg/m3 10.79 µg/m3 4.11 µg/m3 0.23 mg/m3 14.37 °C 61.4 % 1,022.10 mbar 2.12 m/s 246.68 Deg 6.78 µg/m3
2022-01-20 14:00 46.98 µg/m3 0.96 µg/m3 10.42 µg/m3 4.05 µg/m3 0.2 mg/m3 14.32 °C 62.01 % 1,022.70 mbar 3.46 m/s 240.97 Deg 45.5 µg/m3
2022-01-20 13:00 33.58 µg/m3 0.71 µg/m3 10.85 µg/m3 4.32 µg/m3 0.22 mg/m3 13.6 °C 71.11 % 1,023.45 mbar 2.78 m/s 251.53 Deg 30.41 µg/m3
2022-01-20 12:00 35.56 µg/m3 0.72 µg/m3 12.25 µg/m3 4.71 µg/m3 0.22 mg/m3 14.21 °C 69.89 % 1,024.40 mbar 2.34 m/s 251.91 Deg 11.62 µg/m3
2022-01-20 11:00 40.62 µg/m3 0.85 µg/m3 11.12 µg/m3 4.53 µg/m3 0.21 mg/m3 14.05 °C 69.18 % 1,024.77 mbar 3.51 m/s 193.69 Deg 20.23 µg/m3
2022-01-20 10:00 99.91 µg/m3 2.66 µg/m3 30.71 µg/m3 15.66 µg/m3 0.68 mg/m3 12.65 °C 82.46 % 1,024.66 mbar 0.89 m/s 189.93 Deg 163.22 µg/m3
2022-01-20 09:00 100.23 µg/m3 2.74 µg/m3 32.33 µg/m3 17.83 µg/m3 0.85 mg/m3 10.58 °C 88.69 % 1,024.60 mbar 1.93 m/s 193.55 Deg 182.48 µg/m3
2022-01-20 08:00 92.43 µg/m3 2.32 µg/m3 25.45 µg/m3 13.69 µg/m3 0.73 mg/m3 10.34 °C 90.07 % 1,024.81 mbar 1.68 m/s 200.72 Deg 153.64 µg/m3
2022-01-20 07:00 69.43 µg/m3 0.88 µg/m3 16.04 µg/m3 7.75 µg/m3 0.41 mg/m3 10.53 °C 89.86 % 1,024.83 mbar 1.33 m/s 191.17 Deg 38.33 µg/m3

It is to be noted that the data is provisional and subject to quality assurance procedures. For validated data kindly refer your request to contact.air@era.org.mt